[[{"header":{"parameterUnit":"m.s-1","parameterCategory":2,"la1":30.2991,"la2":30.254,"lo1":-89.0895,"lo2":-89.0444,"dy":0.0017,"dx":0.0017,"nx":28,"ny":28,"refTime":"2024-10-22T03:00:00:Z","depth":"0","parameterNumber":2,"parameterNumberName":"U-component_of_CURRENTS"},"data":[0,0,0,0,0,0,0,0,0,0,0,0,0,0,0,0,0,0,0,0,0,0,0,0,0,0,0,0,0,0,0,0,0,0,0,0,0,0,0,0,0,0,0,0,0,0,0,0,0,0,0,0,0,0,0,0,0,0,0.3379,0.338,0,0.3425,0.3425,0.3425,0.3441,0.3441,0.3441,0.3441,0.3432,0.3432,0.3432,0,0,0,0,0,0,0,0,0,0,0,0,0,0.3334,0.3335,0.3379,0.338,0.3381,0.3425,0.3425,0.3425,0.3441,0.3441,0.3441,0.3441,0.3433,0.3432,0.3432,0,0,0,0,0,0,0,0,0,0,0,0,0,0.3362,0.3335,0.3379,0.3395,0.3398,0.3425,0.3425,0.3425,0.3441,0.3441,0.3441,0.3441,0.3433,0.3432,0.3432,0.3428,0,0,0.3431,0.343,0,0,0,0,0,0,0,0,0.336,0.3363,0.3392,0.3394,0.3397,0.3429,0.3407,0.3425,0.344,0.3421,0.3441,0.3441,0.3428,0.3428,0.3433,0.3427,0.3427,0.3431,0.343,0.343,0.343,0,0,0,0,0,0,0,0.3358,0.3361,0.3394,0.3393,0.3396,0.3411,0.3414,0.341,0.3421,0.3423,0.3425,0.3434,0.3429,0.3434,0.3433,0.3427,0.3431,0.343,0.343,0.343,0.3473,0.3474,0,0,0,0,0,0,0.3356,0.3359,0.3393,0.3396,0.3381,0.3412,0.3415,0.3417,0.3422,0.3424,0.3434,0.3435,0.3435,0.3434,0.3433,0.3476,0.343,0.343,0.343,0.3472,0.3473,0.3475,0,0,0,0,0,0,0.3355,0.3358,0.3391,0.3381,0.3387,0.3412,0.3414,0.3418,0.3429,0.3432,0.3432,0.3442,0.3435,0.3434,0.3446,0.3474,0.343,0.3429,0.347,0.3472,0.3474,0.3532,0,0,0,0,0,0,0.3353,0.3357,0.3356,0.3381,0.3388,0.342,0.3414,0.3419,0.3435,0.3437,0.3438,0.3438,0.3435,0.3446,0.3445,0.3473,0.3429,0.3468,0.3471,0.3473,0.3528,0.3536,0.3542,0,0,0,0,0,0.3351,0.3344,0.3355,0.336,0.3385,0.3421,0.3426,0.3442,0.3436,0.345,0.3452,0.3438,0.3462,0.3447,0.3445,0.3473,0.3467,0.347,0.3473,0.3525,0.3534,0.3542,0,0,0,0,0,0,0.331,0.3346,0.3359,0.3359,0.3397,0.3425,0.343,0.3444,0.3457,0.3448,0.3448,0.3449,0.3476,0.3463,0.3446,0.3495,0.3465,0.3468,0.3505,0.3514,0.352,0.3544,0.3429,0,0,0,0,0,0.3305,0.3314,0.3357,0.3357,0.3375,0.3404,0.3418,0.3433,0.3449,0.3455,0.3461,0.3466,0.3486,0.349,0.35,0.3516,0.3557,0.3536,0.3542,0.3548,0.3568,0.3655,0.3672,0.3485,0.3485,0.3485,0,0,0.3287,0.3309,0.3312,0.3351,0.3373,0.3407,0.3411,0.3433,0.3465,0.3449,0.3479,0.3489,0.3497,0.3528,0.3538,0.352,0.3628,0.3552,0.3557,0.3574,0.366,0.3679,0.3695,0.3487,0.3487,0.3486,0,0,0.3265,0.3279,0.3288,0.3325,0.3369,0.3398,0.3408,0.3447,0.3468,0.3498,0.3507,0.354,0.3546,0.358,0.3592,0.364,0.3665,0.3636,0.3686,0.3771,0.3787,0.3802,0.3899,0.3923,0.3636,0.3636,0.3636,0,0.3244,0.3267,0.3297,0.3326,0.336,0.3397,0.3429,0.346,0.3499,0.353,0.3511,0.3582,0.3579,0.3654,0.3672,0.3659,0.3714,0.3652,0.3782,0.3797,0.3812,0.3908,0.3933,0.3639,0.3639,0.3638,0.3638,0,0.3244,0.3269,0.3277,0.3335,0.3374,0.3404,0.3464,0.3502,0.3525,0.3564,0.3637,0.3654,0.3702,0.3708,0.37,0.3806,0.3817,0.3785,0.3763,0.3835,0.3931,0.3956,0.3643,0.3642,0.3641,0.3641,0,0,0.319,0.3264,0.327,0.331,0.3385,0.342,0.348,0.3562,0.3616,0.3657,0.374,0.3779,0.3802,0.3819,0.3831,0.3898,0.4043,0.3885,0.3888,0.3988,0.4257,0.4232,0.4256,0.4037,0.4041,0.4044,0.4291,0,0.319,0.3243,0.3285,0.335,0.3392,0.3459,0.352,0.3596,0.3659,0.3746,0.3801,0.3876,0.3842,0.3881,0.3944,0.4014,0.4109,0.3981,0.4168,0.4174,0.4148,0.4284,0.4077,0.4276,0.4315,0.4319,0.4322,0,0.3192,0.3233,0.329,0.3386,0.341,0.345,0.3573,0.3634,0.3763,0.3816,0.3907,0.3962,0.4079,0.4033,0.4217,0.4138,0.4214,0.4267,0.4277,0.4251,0.4195,0.4207,0.432,0.4189,0.4361,0.4357,0.4355,0,0.3172,0.3244,0.3291,0.3323,0.3429,0.3467,0.3525,0.3648,0.3743,0.3878,0.398,0.4086,0.4188,0.4276,0.4391,0.4316,0.461,0.451,0.4577,0.4576,0.4437,0.4416,0.4446,0.4679,0.4678,0.4677,0.4677,0,0.3181,0.3222,0.3277,0.3313,0.3385,0.3449,0.3559,0.3635,0.3785,0.3919,0.4017,0.4165,0.4259,0.4432,0.4476,0.4633,0.4689,0.4638,0.4653,0.4452,0.4431,0.4335,0.4284,0.4687,0.4685,0.4683,0.4681,0,0.3178,0.3212,0.3273,0.3354,0.3385,0.3434,0.3591,0.3681,0.3815,0.4004,0.4069,0.4281,0.4487,0.4619,0.4801,0.4774,0.4767,0.4948,0.4717,0.47,0.4537,0.4497,0.4433,0.4303,0.5016,0.5017,0.5018,0,0.3192,0.3216,0.3295,0.3347,0.3386,0.3475,0.3557,0.3683,0.3794,0.4079,0.4178,0.4452,0.4625,0.4904,0.4918,0.5038,0.4885,0.4911,0.4706,0.4553,0.4521,0.4318,0.4195,0.4559,0.4556,0.4554,0.4552,0,0.3238,0.3249,0.3314,0.3393,0.3464,0.3545,0.3658,0.3745,0.3914,0.4084,0.431,0.4471,0.4737,0.4761,0.4932,0.4949,0.4632,0.4863,0.4759,0.4234,0.3963,0.3834,0.4391,0.4531,0.4533,0.4534,0.4536,0.4536,0.3291,0.3334,0.3408,0.3475,0.3538,0.359,0.3635,0.3761,0.3911,0.41,0.43,0.446,0.4575,0.4756,0.4758,0.4577,0.4546,0.4387,0.4382,0.4213,0.3975,0.4507,0.4617,0.462,0.4622,0.4624,0.4626,0,0.3393,0.3437,0.3499,0.3561,0.3583,0.3608,0.3697,0.3708,0.3815,0.4003,0.417,0.4259,0.432,0.4363,0.4262,0.4088,0.3857,0.3982,0.362,0.3546,0.4077,0.394,0.3842,0.3842,0.3842,0.3842,0.3842,0.3842,0.3471,0.3556,0.3555,0.3587,0.3599,0.357,0.3579,0.3591,0.3673,0.3713,0.3734,0.3835,0.3957,0.4022,0.3835,0.3732,0.3411,0.3277,0.3294,0.3642,0.3676,0.3708,0.3564,0.3389,0.3388,0.2541,0.2535,0.2531]},{"header":{"parameterUnit":"m.s-1","parameterCategory":2,"la1":30.2991,"la2":30.254,"lo1":-89.0895,"lo2":-89.0444,"dy":0.0017,"dx":0.0017,"nx":28,"ny":28,"refTime":"2024-10-22T03:00:00:Z","depth":"0","parameterNumber":3,"parameterNumberName":"V-component_of_CURRENTS"},"data":[0,0,0,0,0,0,0,0,0,0,0,0,0,0,0,0,0,0,0,0,0,0,0,0,0,0,0,0,0,0,0,0,0,0,0,0,0,0,0,0,0,0,0,0,0,0,0,0,0,0,0,0,0,0,0,0,0,0,-0.0426,-0.0427,0,-0.0462,-0.0463,-0.0463,-0.0501,-0.0501,-0.0502,-0.0502,-0.054,-0.054,-0.0541,0,0,0,0,0,0,0,0,0,0,0,0,0,-0.0432,-0.0432,-0.0426,-0.0427,-0.0427,-0.0462,-0.0463,-0.0463,-0.0501,-0.0501,-0.0502,-0.0503,-0.0539,-0.054,-0.0541,0,0,0,0,0,0,0,0,0,0,0,0,0,-0.0445,-0.0431,-0.0426,-0.0451,-0.0453,-0.0462,-0.0463,-0.0463,-0.0501,-0.0501,-0.0502,-0.0503,-0.0539,-0.054,-0.0541,-0.0528,0,0,-0.0543,-0.0543,0,0,0,0,0,0,0,0,-0.0444,-0.0444,-0.0446,-0.0449,-0.0452,-0.0478,-0.0479,-0.0485,-0.05,-0.0482,-0.0502,-0.0503,-0.0519,-0.0521,-0.0526,-0.053,-0.0532,-0.0543,-0.0543,-0.0544,-0.0544,0,0,0,0,0,0,0,-0.0443,-0.0443,-0.044,-0.0447,-0.045,-0.0474,-0.0476,-0.048,-0.0495,-0.0484,-0.0487,-0.0491,-0.052,-0.0525,-0.0527,-0.0532,-0.0543,-0.0543,-0.0544,-0.0544,-0.0552,-0.0552,0,0,0,0,0,0,-0.0436,-0.0442,-0.0439,-0.0441,-0.045,-0.0473,-0.0476,-0.0469,-0.0495,-0.05,-0.049,-0.0493,-0.0523,-0.0526,-0.0528,-0.0516,-0.0544,-0.0544,-0.0545,-0.0552,-0.0552,-0.0552,0,0,0,0,0,0,-0.0435,-0.0435,-0.0438,-0.0444,-0.0446,-0.0472,-0.0464,-0.0469,-0.0478,-0.05,-0.0505,-0.0494,-0.0524,-0.0527,-0.0532,-0.0518,-0.0545,-0.0545,-0.0552,-0.0552,-0.0552,-0.049,0,0,0,0,0,0,-0.0435,-0.0434,-0.0424,-0.0443,-0.0445,-0.0434,-0.0463,-0.0469,-0.0479,-0.0482,-0.0505,-0.0509,-0.0525,-0.0531,-0.0533,-0.0519,-0.0546,-0.0553,-0.0552,-0.0552,-0.0493,-0.0488,-0.0484,0,0,0,0,0,-0.0435,-0.0406,-0.0423,-0.0423,-0.0431,-0.0433,-0.0436,-0.0458,-0.0478,-0.0471,-0.0494,-0.0509,-0.053,-0.0531,-0.0533,-0.0519,-0.0553,-0.0552,-0.0552,-0.0495,-0.0489,-0.0484,0,0,0,0,0,0,-0.0393,-0.0408,-0.0427,-0.0402,-0.0417,-0.0439,-0.0428,-0.0455,-0.0467,-0.0469,-0.0501,-0.0506,-0.0509,-0.0523,-0.0523,-0.0523,-0.0546,-0.0546,-0.0501,-0.0496,-0.0492,-0.0471,-0.0546,0,0,0,0,0,-0.0382,-0.037,-0.0394,-0.0374,-0.0376,-0.0406,-0.041,-0.0428,-0.0444,-0.0451,-0.0471,-0.0491,-0.0507,-0.0509,-0.0524,-0.0514,-0.0516,-0.051,-0.0506,-0.0502,-0.0488,-0.0501,-0.0496,-0.055,-0.055,-0.055,0,0,-0.0362,-0.0367,-0.0362,-0.0366,-0.0375,-0.0363,-0.0409,-0.0405,-0.04,-0.0451,-0.0442,-0.0476,-0.0504,-0.05,-0.0502,-0.0509,-0.048,-0.0501,-0.0497,-0.0486,-0.05,-0.0495,-0.049,-0.055,-0.055,-0.055,0,0,-0.0306,-0.0317,-0.0289,-0.0296,-0.0308,-0.0326,-0.0325,-0.0348,-0.0361,-0.0365,-0.0405,-0.0428,-0.0444,-0.0463,-0.0475,-0.0454,-0.0462,-0.0463,-0.0414,-0.0427,-0.0422,-0.0418,-0.0377,-0.037,-0.0454,-0.0454,-0.0453,0,-0.0279,-0.0251,-0.028,-0.0255,-0.0252,-0.0305,-0.0276,-0.0293,-0.0319,-0.032,-0.0351,-0.039,-0.0424,-0.0422,-0.0425,-0.0442,-0.0435,-0.0429,-0.0419,-0.0416,-0.0413,-0.0372,-0.0365,-0.0451,-0.0451,-0.0451,-0.0451,0,-0.0207,-0.0189,-0.0168,-0.0159,-0.0159,-0.0142,-0.0172,-0.0175,-0.0207,-0.0231,-0.0246,-0.0302,-0.0323,-0.0346,-0.0381,-0.0376,-0.037,-0.0416,-0.0428,-0.0403,-0.0362,-0.0356,-0.0446,-0.0447,-0.0448,-0.0449,0,0,-0.0138,-0.0121,-0.0115,-0.0095,-0.0108,-0.0094,-0.0083,-0.0085,-0.0065,-0.012,-0.0092,-0.0168,-0.0212,-0.023,-0.0284,-0.0305,-0.0283,-0.0347,-0.035,-0.0296,-0.0266,-0.0236,-0.0226,-0.0331,-0.033,-0.033,-0.0232,0,-0.0074,-0.0005,-0.0022,0.0036,0.0068,0.0028,0.0046,0.0034,0.0013,0.0028,-0.0049,-0.0051,-0.0163,-0.0167,-0.0213,-0.026,-0.027,-0.0302,-0.0307,-0.0306,-0.0275,-0.022,-0.0228,-0.0142,-0.0227,-0.0226,-0.0225,0,-0.0004,0.0034,0.0104,0.0138,0.0149,0.0168,0.0196,0.0208,0.0198,0.0185,0.015,0.0096,0.0059,-0.0042,-0.0114,-0.0128,-0.0191,-0.0239,-0.0237,-0.0227,-0.0265,-0.0189,-0.0127,-0.0333,-0.0216,-0.0216,-0.0217,0,0.0062,0.0119,0.0179,0.0191,0.0221,0.0243,0.0255,0.0254,0.0301,0.0293,0.0344,0.0249,0.0253,0.0134,0.0023,-0.0043,-0.0027,-0.013,-0.0154,-0.015,-0.0166,-0.0165,-0.0298,-0.0176,-0.0176,-0.0177,-0.0177,0,0.0129,0.0182,0.0216,0.0251,0.0339,0.0319,0.0405,0.0404,0.0444,0.0543,0.0432,0.0514,0.0292,0.0269,0.0116,0.004,0.0047,-0.0115,-0.0125,-0.0141,-0.0139,-0.0328,-0.0454,-0.0173,-0.0174,-0.0174,-0.0175,0,0.0196,0.021,0.0294,0.0344,0.0373,0.0435,0.0527,0.0595,0.0611,0.0751,0.0767,0.0739,0.0714,0.0533,0.0389,0.0206,-0.0004,0.0067,0.0095,0.0085,-0.0183,-0.0303,-0.0407,-0.0499,0.004,0.0042,0.0043,0,0.024,0.0288,0.0382,0.0447,0.0475,0.0568,0.0644,0.0679,0.0773,0.092,0.1015,0.103,0.1095,0.0916,0.0595,0.0376,0.0127,0.0179,0.0016,-0.0167,-0.031,-0.041,-0.0489,0.0038,0.0039,0.0039,0.004,0,0.0335,0.0361,0.0429,0.0556,0.0647,0.0774,0.0885,0.0991,0.1072,0.1219,0.1414,0.149,0.1337,0.1117,0.078,0.0574,0.0017,0.0188,-0.0031,-0.0333,-0.0422,-0.0523,-0.0023,0.0047,0.0046,0.0046,0.0045,0.0045,0.0411,0.047,0.0547,0.0667,0.0791,0.0945,0.1054,0.1214,0.1411,0.1654,0.1719,0.1916,0.1537,0.109,0.0776,0.0136,0.0112,-0.0108,-0.0231,-0.0308,-0.0437,0.0115,0.0178,0.0178,0.0178,0.0178,0.0178,0,0.0485,0.0538,0.0656,0.0792,0.0937,0.0983,0.1195,0.1328,0.1583,0.1894,0.2098,0.2086,0.1605,0.1062,0.0211,-0.0228,-0.0439,-0.0479,-0.0672,-0.0731,-0.0258,-0.0304,-0.0308,-0.0308,-0.0308,-0.0308,-0.0308,-0.0307,0.0526,0.0615,0.0654,0.0872,0.0987,0.1173,0.129,0.1527,0.1774,0.2156,0.236,0.2492,0.2065,0.0562,-0.0449,-0.0681,-0.1032,-0.1075,-0.1227,-0.0974,-0.0952,-0.093,-0.1005,-0.1156,-0.1158,-0.1673,-0.1678,-0.1682]}],[{"header":{"parameterUnit":"m.s-1","parameterCategory":2,"la1":30.2991,"la2":30.254,"lo1":-89.0895,"lo2":-89.0444,"dy":0.0017,"dx":0.0017,"nx":28,"ny":28,"refTime":"2024-10-22T03:00:00:Z","depth":"2","parameterNumber":2,"parameterNumberName":"U-component_of_CURRENTS"},"data":[0,0,0,0,0,0,0,0,0,0,0,0,0,0,0,0,0,0,0,0,0,0,0,0,0,0,0,0,0,0,0,0,0,0,0,0,0,0,0,0,0,0,0,0,0,0,0,0,0,0,0,0,0,0,0,0,0,0,0.2613,0.2614,0,0.2672,0.2672,0.2673,0.2707,0.2707,0.2707,0.2708,0.2748,0.2749,0.2749,0,0,0,0,0,0,0,0,0,0,0,0,0,0.2557,0.2558,0.2613,0.2614,0.2615,0.2672,0.2672,0.2673,0.2707,0.2707,0.2707,0.2708,0.2748,0.2748,0.2749,0,0,0,0,0,0,0,0,0,0,0,0,0,0.2593,0.2558,0.2613,0.264,0.2643,0.2672,0.2672,0.2673,0.2706,0.2707,0.2707,0.2708,0.2747,0.2748,0.2749,0.2746,0,0,0.2753,0.2753,0,0,0,0,0,0,0,0,0.2591,0.2595,0.2635,0.2638,0.2642,0.2684,0.2668,0.2697,0.2706,0.268,0.2708,0.2708,0.2726,0.2729,0.2736,0.2748,0.275,0.2753,0.2754,0.2754,0.2754,0,0,0,0,0,0,0,0.2588,0.2593,0.2634,0.2636,0.264,0.2659,0.2664,0.2674,0.2697,0.2682,0.2685,0.2696,0.2728,0.2735,0.2737,0.275,0.2753,0.2754,0.2755,0.2755,0.2832,0.2834,0,0,0,0,0,0,0.2584,0.259,0.2632,0.2636,0.262,0.266,0.2666,0.2668,0.2698,0.2703,0.2695,0.2697,0.2732,0.2736,0.2738,0.2802,0.2754,0.2755,0.2756,0.2831,0.2833,0.2834,0,0,0,0,0,0,0.2582,0.2587,0.263,0.2617,0.2624,0.266,0.2663,0.2669,0.2691,0.2708,0.2713,0.2713,0.2733,0.2737,0.277,0.2801,0.2756,0.2757,0.2829,0.2832,0.2833,0.2887,0,0,0,0,0,0,0.258,0.2585,0.2589,0.2616,0.2624,0.2655,0.2663,0.267,0.2697,0.27,0.2725,0.2728,0.2734,0.2768,0.2771,0.2802,0.2758,0.2828,0.283,0.2833,0.2883,0.2891,0.2897,0,0,0,0,0,0.2578,0.258,0.2588,0.2594,0.2627,0.2656,0.2662,0.2688,0.2697,0.2709,0.2734,0.2728,0.2786,0.277,0.2773,0.2805,0.2826,0.283,0.2833,0.2881,0.2889,0.2897,0,0,0,0,0,0,0.2549,0.2585,0.2594,0.2605,0.2633,0.2663,0.268,0.2694,0.2722,0.2731,0.2742,0.2748,0.2792,0.2788,0.2769,0.2836,0.2807,0.281,0.2842,0.285,0.2857,0.287,0.2759,0,0,0,0,0,0.2545,0.2564,0.2594,0.2605,0.2621,0.2652,0.2669,0.2687,0.2715,0.2728,0.2748,0.2772,0.2804,0.2818,0.2838,0.2868,0.2889,0.2892,0.2899,0.2904,0.2918,0.2972,0.2985,0.2844,0.2844,0.2844,0,0,0.2538,0.256,0.257,0.2602,0.2628,0.2658,0.2663,0.2695,0.2727,0.2727,0.2776,0.2795,0.2817,0.2861,0.2879,0.2863,0.2958,0.2908,0.2913,0.2924,0.2976,0.299,0.3002,0.2846,0.2846,0.2846,0,0,0.2538,0.2553,0.2574,0.2599,0.2642,0.2667,0.2679,0.2718,0.2744,0.2785,0.2805,0.2847,0.2877,0.2913,0.2931,0.2984,0.2992,0.2986,0.3031,0.3083,0.3095,0.3106,0.3163,0.3178,0.2988,0.2988,0.2988,0,0.253,0.2557,0.2583,0.2611,0.2638,0.2674,0.2703,0.2737,0.2782,0.2812,0.2807,0.2892,0.2907,0.2981,0.3006,0.3001,0.3031,0.2998,0.3093,0.3104,0.3114,0.3169,0.3186,0.2991,0.2991,0.2991,0.299,0,0.2546,0.2574,0.259,0.2643,0.2671,0.2703,0.2752,0.2786,0.2819,0.2857,0.2931,0.2963,0.302,0.3029,0.3036,0.3122,0.3121,0.3096,0.3072,0.3131,0.3186,0.3202,0.2996,0.2994,0.2994,0.2993,0,0,0.2516,0.2589,0.2596,0.2628,0.2691,0.2716,0.2774,0.284,0.29,0.2939,0.3018,0.3073,0.3104,0.3128,0.3148,0.319,0.3292,0.3178,0.318,0.3236,0.3421,0.3363,0.3375,0.3283,0.3286,0.3288,0.3435,0,0.2526,0.2578,0.2616,0.2674,0.2709,0.2758,0.2818,0.288,0.2944,0.303,0.3079,0.3166,0.3141,0.319,0.3229,0.3285,0.3335,0.3255,0.3355,0.3358,0.33,0.3391,0.3115,0.3217,0.3451,0.3453,0.3455,0,0.2532,0.2569,0.2621,0.2706,0.2727,0.2771,0.2872,0.2928,0.3049,0.3109,0.3192,0.3249,0.3349,0.3309,0.3429,0.3381,0.3413,0.3436,0.3441,0.3379,0.333,0.3193,0.3237,0.3482,0.348,0.3478,0.3476,0,0.25,0.2576,0.262,0.2644,0.2741,0.2779,0.2837,0.2949,0.3029,0.3174,0.326,0.3364,0.346,0.3494,0.3554,0.3507,0.3674,0.3612,0.3589,0.3586,0.3366,0.3338,0.3696,0.3696,0.3696,0.3695,0.3695,0,0.2496,0.2525,0.2611,0.2633,0.2709,0.2769,0.2876,0.2952,0.3095,0.3207,0.3306,0.3415,0.3514,0.3615,0.3614,0.367,0.373,0.3628,0.3628,0.3378,0.335,0.358,0.3564,0.3701,0.37,0.3699,0.3698,0,0.2455,0.2501,0.2561,0.2662,0.2698,0.2748,0.2897,0.2975,0.3114,0.3264,0.3324,0.3512,0.364,0.3718,0.3823,0.3776,0.3809,0.3808,0.3517,0.348,0.3668,0.3654,0.3798,0.3798,0.3797,0.3797,0.3796,0,0.2446,0.2468,0.258,0.2617,0.2664,0.2755,0.2826,0.2971,0.3083,0.33,0.3385,0.3572,0.3662,0.3808,0.3794,0.3816,0.3857,0.3568,0.3415,0.3698,0.3684,0.367,0.3657,0.3154,0.3149,0.3144,0.314,0,0.2436,0.2474,0.253,0.2598,0.2663,0.2748,0.2875,0.2946,0.3119,0.3223,0.3354,0.3421,0.3614,0.353,0.3615,0.3568,0.3533,0.3475,0.387,0.3167,0.3101,0.3084,0.309,0.31,0.3104,0.3107,0.3109,0.311,0.2435,0.2462,0.2527,0.2583,0.2647,0.2696,0.2715,0.2851,0.2933,0.3035,0.3188,0.3195,0.3304,0.3273,0.319,0.3145,0.3368,0.3199,0.3209,0.3225,0.3119,0.3056,0.3027,0.3031,0.3034,0.3036,0.3039,0,0.2427,0.2452,0.2502,0.2538,0.2551,0.2627,0.2716,0.2681,0.2691,0.2825,0.2876,0.2674,0.2671,0.2772,0.2645,0.2656,0.2578,0.2545,0.2412,0.2458,0.2498,0.2348,0.2056,0.2052,0.2049,0.2045,0,0,0.2412,0.2421,0.243,0.242,0.2451,0.2419,0.2422,0.2366,0.2418,0.233,0.2338,0.255,0.2698,0.2334,0.2308,0.2156,0.2272,0.2072,0.2873,0.2764,0.2798,0.2907,0.2735,0,0,0,0,0]},{"header":{"parameterUnit":"m.s-1","parameterCategory":2,"la1":30.2991,"la2":30.254,"lo1":-89.0895,"lo2":-89.0444,"dy":0.0017,"dx":0.0017,"nx":28,"ny":28,"refTime":"2024-10-22T03:00:00:Z","depth":"2","parameterNumber":3,"parameterNumberName":"V-component_of_CURRENTS"},"data":[0,0,0,0,0,0,0,0,0,0,0,0,0,0,0,0,0,0,0,0,0,0,0,0,0,0,0,0,0,0,0,0,0,0,0,0,0,0,0,0,0,0,0,0,0,0,0,0,0,0,0,0,0,0,0,0,0,0,0.0055,0.0054,0,0.0,-0.0,-0.0001,-0.005,-0.005,-0.0051,-0.0051,-0.011,-0.0111,-0.0112,0,0,0,0,0,0,0,0,0,0,0,0,0,0.0079,0.0079,0.0055,0.0054,0.0054,0.0,-0.0,-0.0001,-0.005,-0.005,-0.0051,-0.0052,-0.0109,-0.0111,-0.0112,0,0,0,0,0,0,0,0,0,0,0,0,0,0.0051,0.0079,0.0055,0.0023,0.002,0.0001,-0.0,-0.0001,-0.0049,-0.005,-0.0051,-0.0052,-0.0109,-0.0111,-0.0112,-0.0105,0,0,-0.0117,-0.0118,0,0,0,0,0,0,0,0,0.0053,0.005,0.0028,0.0025,0.0021,-0.0019,-0.0013,-0.0036,-0.0049,-0.0023,-0.0051,-0.0052,-0.0079,-0.0083,-0.0092,-0.0107,-0.011,-0.0117,-0.0118,-0.0119,-0.0119,0,0,0,0,0,0,0,0.0055,0.0052,0.0033,0.0028,0.0023,-0.0002,-0.0006,-0.0018,-0.0046,-0.0026,-0.0029,-0.0035,-0.0081,-0.009,-0.0093,-0.0111,-0.0117,-0.0118,-0.0119,-0.012,-0.0138,-0.0137,0,0,0,0,0,0,0.0065,0.0055,0.0035,0.0032,0.0035,-0.0001,-0.0006,-0.0005,-0.0046,-0.0053,-0.0034,-0.0037,-0.0087,-0.0091,-0.0095,-0.0087,-0.0119,-0.012,-0.0121,-0.0138,-0.0137,-0.0137,0,0,0,0,0,0,0.0066,0.0064,0.0037,0.0041,0.0036,-0.0,0.0001,-0.0006,-0.0017,-0.0052,-0.0059,-0.0039,-0.0088,-0.0093,-0.0107,-0.009,-0.0121,-0.0122,-0.0139,-0.0138,-0.0137,-0.0071,0,0,0,0,0,0,0.0067,0.0065,0.0068,0.0042,0.0036,0.0035,0.0002,-0.0006,-0.0019,-0.0024,-0.0058,-0.0065,-0.0089,-0.0104,-0.0109,-0.0092,-0.0123,-0.0139,-0.0138,-0.0137,-0.0073,-0.0068,-0.0063,0,0,0,0,0,0.0068,0.0081,0.0069,0.0067,0.0043,0.0036,0.0031,0.0001,-0.0018,-0.0014,-0.0044,-0.0064,-0.0102,-0.0105,-0.011,-0.0094,-0.014,-0.0138,-0.0137,-0.0076,-0.0069,-0.0063,0,0,0,0,0,0,0.0094,0.0077,0.0063,0.007,0.0057,0.0028,0.0026,0.0006,-0.0014,-0.0022,-0.0058,-0.0065,-0.0073,-0.0092,-0.0095,-0.0098,-0.0124,-0.0124,-0.0075,-0.0069,-0.0064,-0.0045,-0.0125,0,0,0,0,0,0.0102,0.0106,0.0086,0.0091,0.0086,0.0057,0.0048,0.0031,0.0009,-0.0002,-0.0027,-0.0054,-0.0071,-0.0077,-0.0098,-0.0094,-0.0119,-0.0088,-0.0083,-0.0078,-0.0067,-0.0091,-0.0086,-0.0134,-0.0134,-0.0134,0,0,0.0111,0.0103,0.0104,0.0096,0.0081,0.0089,0.005,0.0044,0.0053,-0.0004,-0.0003,-0.0037,-0.0068,-0.0069,-0.0073,-0.0083,-0.0079,-0.0077,-0.0072,-0.0064,-0.0089,-0.0084,-0.008,-0.0133,-0.0133,-0.0133,0,0,0.014,0.0127,0.0142,0.014,0.0126,0.0111,0.0113,0.0088,0.0079,0.0073,0.0034,0.0012,-0.0014,-0.003,-0.0042,-0.0017,-0.0054,-0.0026,0.0022,-0.0001,0.0003,0.0006,-0.0022,-0.0022,-0.0018,-0.0018,-0.0018,0,0.0151,0.0171,0.0146,0.0163,0.0171,0.0126,0.0152,0.0139,0.0113,0.0114,0.0082,0.0041,0.0008,0.0014,0.0015,-0.0003,-0.0027,0.0002,0.0007,0.001,0.0012,-0.0018,-0.0019,-0.0015,-0.0015,-0.0015,-0.0016,0,0.0195,0.0211,0.0221,0.0231,0.0235,0.0249,0.0232,0.0232,0.0207,0.0187,0.0177,0.0124,0.0102,0.0086,0.0055,0.0061,0.0035,0.0013,-0.0006,0.0021,-0.0013,-0.0015,-0.001,-0.0011,-0.0012,-0.0013,0,0,0.0222,0.0248,0.0252,0.0279,0.0276,0.029,0.0307,0.0315,0.0335,0.0286,0.0308,0.0252,0.0209,0.0193,0.0149,0.0126,0.0109,0.008,0.0077,0.0058,0.0053,0.0016,0.0009,0.0086,0.0086,0.0086,0.0023,0,0.0265,0.0324,0.0322,0.0379,0.0411,0.0393,0.0418,0.0417,0.0401,0.0408,0.0346,0.0336,0.0256,0.0244,0.0206,0.0139,0.0107,0.0128,0.0025,0.0022,-0.0009,0.0008,0.0031,-0.0025,0.0021,0.002,0.002,0,0.0312,0.0349,0.0416,0.0471,0.0483,0.0505,0.0547,0.0566,0.0557,0.0546,0.0512,0.0454,0.0409,0.0337,0.0227,0.0242,0.0154,0.0091,0.0087,0.003,-0.0018,-0.0044,-0.0031,0.0016,0.0017,0.0017,0.0017,0,0.0358,0.0418,0.0479,0.0497,0.0543,0.0572,0.0595,0.0603,0.0649,0.0632,0.0656,0.0567,0.0548,0.042,0.0265,0.0248,0.0145,0.0105,-0.0013,-0.0017,-0.0028,-0.0033,0.0028,0.0028,0.0029,0.0029,0.0029,0,0.0414,0.0464,0.0506,0.0542,0.0624,0.063,0.0715,0.072,0.0759,0.0834,0.0729,0.076,0.0568,0.0477,0.0313,0.0147,0.0174,0.0001,-0.0032,-0.0006,-0.0008,0.0004,0.0002,0.0026,0.0027,0.0027,0.0028,0,0.046,0.0484,0.0562,0.0622,0.0648,0.0707,0.081,0.0878,0.0889,0.0989,0.0991,0.0917,0.0791,0.0587,0.0392,0.023,0.0059,-0.0009,0.0029,0.0001,-0.0102,-0.01,-0.0145,-0.0147,-0.0148,-0.015,-0.0151,0,0.049,0.0533,0.0624,0.0686,0.0717,0.0811,0.089,0.0938,0.1032,0.1095,0.116,0.1057,0.1006,0.0687,0.0383,0.009,0.0057,-0.0081,-0.0117,-0.009,-0.0118,-0.0113,-0.0109,-0.0108,-0.0108,-0.0109,-0.0109,0,0.0554,0.0579,0.0648,0.0771,0.0862,0.0988,0.1105,0.1201,0.1283,0.1343,0.1404,0.1354,0.1059,0.0756,0.035,0.0149,-0.004,-0.0102,-0.0069,-0.007,-0.0061,-0.0086,-0.0082,-0.0114,-0.0113,-0.0113,-0.0113,-0.0113,0.0602,0.0662,0.0753,0.0872,0.0989,0.1152,0.1275,0.1403,0.154,0.1645,0.158,0.1508,0.1171,0.0641,0.0293,-0.0073,-0.0061,-0.0193,-0.0189,-0.0185,-0.0171,-0.0166,-0.0236,-0.0236,-0.0237,-0.0237,-0.0237,0,0.0683,0.0747,0.0857,0.1011,0.1156,0.1206,0.1419,0.1536,0.1702,0.175,0.1761,0.1417,0.1077,0.0697,0.0154,-0.0176,-0.0195,-0.0278,-0.0224,-0.0217,-0.0212,-0.0198,-0.0272,-0.0273,-0.0273,-0.0274,0,0,0.0731,0.0847,0.0899,0.1127,0.1246,0.1455,0.1586,0.1727,0.1807,0.1829,0.177,0.1659,0.1193,0.0798,0.035,0.0045,-0.001,-0.0021,0.004,0.0163,0.0172,-0.0135,-0.0103,0,0,0,0,0]}],[{"header":{"parameterUnit":"m.s-1","parameterCategory":2,"la1":30.2991,"la2":30.254,"lo1":-89.0895,"lo2":-89.0444,"dy":0.0017,"dx":0.0017,"nx":28,"ny":28,"refTime":"2024-10-22T03:00:00:Z","depth":"4","parameterNumber":2,"parameterNumberName":"U-component_of_CURRENTS"},"data":[0,0,0,0,0,0,0,0,0,0,0,0,0,0,0,0,0,0,0,0,0,0,0,0,0,0,0,0,0,0,0,0,0,0,0,0,0,0,0,0,0,0,0,0,0,0,0,0,0,0,0,0,0,0,0,0,0,0,0.1608,0.1609,0,0.1695,0.1696,0.1697,0.1766,0.1767,0.1767,0.1768,0.1862,0.1863,0.1865,0,0,0,0,0,0,0,0,0,0,0,0,0,0.1499,0.1501,0.1608,0.1609,0.161,0.1695,0.1696,0.1697,0.1766,0.1767,0.1768,0.1769,0.1861,0.1863,0.1865,0,0,0,0,0,0,0,0,0,0,0,0,0,0.1561,0.1501,0.1607,0.1656,0.1661,0.1695,0.1696,0.1698,0.1765,0.1767,0.1768,0.1769,0.186,0.1863,0.1866,0.1856,0,0,0.1873,0.1874,0,0,0,0,0,0,0,0,0.1557,0.1564,0.1647,0.1653,0.1659,0.1723,0.1693,0.1752,0.1765,0.1724,0.1768,0.177,0.1816,0.1822,0.1833,0.1861,0.1865,0.1874,0.1875,0.1876,0.1877,0,0,0,0,0,0,0,0.1553,0.1561,0.1641,0.1649,0.1656,0.1673,0.1683,0.1704,0.176,0.1728,0.1733,0.1746,0.1819,0.1831,0.1836,0.1866,0.1874,0.1876,0.1877,0.1878,0.2004,0.2006,0,0,0,0,0,0,0.1544,0.1557,0.1638,0.1643,0.1612,0.1674,0.1685,0.1699,0.176,0.1771,0.1744,0.1748,0.1826,0.1833,0.184,0.1931,0.1876,0.1879,0.188,0.2002,0.2004,0.2006,0,0,0,0,0,0,0.1542,0.1551,0.1634,0.1603,0.1616,0.1675,0.169,0.17,0.175,0.1773,0.1784,0.1788,0.1827,0.1836,0.1896,0.1931,0.188,0.1882,0.2,0.2003,0.2005,0.205,0,0,0,0,0,0,0.1538,0.1549,0.1574,0.1603,0.1617,0.1678,0.1689,0.1701,0.1754,0.1761,0.1813,0.1821,0.1829,0.1892,0.1898,0.1934,0.1884,0.1998,0.2001,0.2004,0.2046,0.2054,0.206,0,0,0,0,0,0.1534,0.1557,0.1574,0.1585,0.1643,0.1679,0.1689,0.1733,0.1755,0.1782,0.1823,0.1822,0.1918,0.1895,0.1902,0.194,0.1996,0.2,0.2004,0.2043,0.2052,0.206,0,0,0,0,0,0,0.1526,0.1567,0.1587,0.1623,0.1661,0.1692,0.1727,0.1752,0.1804,0.1824,0.1843,0.1854,0.192,0.1924,0.1899,0.1987,0.1958,0.1963,0.1985,0.1993,0.2,0.2002,0.1886,0,0,0,0,0,0.1533,0.1565,0.1601,0.1635,0.1656,0.1697,0.1725,0.1755,0.1796,0.1822,0.1857,0.1897,0.1934,0.1961,0.1991,0.2036,0.2049,0.2066,0.2073,0.2079,0.2087,0.2136,0.2148,0.202,0.202,0.2019,0,0,0.154,0.1569,0.1588,0.1637,0.1671,0.1704,0.1718,0.1771,0.1811,0.1822,0.1897,0.1926,0.1953,0.2008,0.2038,0.2022,0.2125,0.2084,0.2089,0.2094,0.2141,0.2154,0.2165,0.2022,0.2022,0.2021,0,0,0.1555,0.1596,0.1622,0.1655,0.1712,0.1736,0.1758,0.181,0.1852,0.1913,0.1937,0.199,0.2043,0.2072,0.209,0.2154,0.2161,0.2169,0.2208,0.2255,0.2266,0.2275,0.2312,0.2325,0.2172,0.2172,0.2172,0,0.1566,0.1601,0.1637,0.1669,0.1701,0.1753,0.1785,0.1832,0.19,0.1933,0.1948,0.2046,0.2071,0.2136,0.2164,0.217,0.2197,0.217,0.2264,0.2273,0.2282,0.2318,0.2331,0.2175,0.2175,0.2174,0.2174,0,0.1587,0.1629,0.165,0.1706,0.1743,0.1785,0.1842,0.1896,0.1948,0.1986,0.2074,0.2117,0.2172,0.2192,0.2201,0.2282,0.2281,0.2266,0.2238,0.2298,0.2332,0.2345,0.2179,0.2178,0.2177,0.2176,0,0,0.1569,0.1649,0.166,0.1691,0.1768,0.1796,0.187,0.1937,0.1996,0.2065,0.2136,0.2207,0.2238,0.2263,0.2289,0.2335,0.2424,0.2337,0.2338,0.2367,0.2535,0.2375,0.2374,0.2431,0.2433,0.2435,0.2534,0,0.1578,0.1636,0.1676,0.1738,0.177,0.1835,0.1896,0.1969,0.2042,0.2124,0.2184,0.2268,0.2264,0.2315,0.2357,0.2417,0.246,0.2398,0.2479,0.2481,0.2326,0.2384,0.2443,0.2544,0.2547,0.2549,0.255,0,0.1576,0.162,0.1676,0.1756,0.1778,0.1826,0.193,0.1995,0.2111,0.2174,0.2257,0.2316,0.2414,0.24,0.2517,0.2484,0.2516,0.2547,0.2551,0.2394,0.2345,0.2472,0.2574,0.2572,0.257,0.2568,0.2567,0,0.1529,0.1614,0.1661,0.1688,0.1788,0.1835,0.1899,0.2011,0.2083,0.2225,0.2295,0.2397,0.2483,0.2537,0.2606,0.2582,0.2722,0.2686,0.2568,0.2557,0.2651,0.264,0.2759,0.2759,0.2759,0.2758,0.2758,0,0.15,0.1541,0.165,0.1674,0.1738,0.1822,0.1911,0.1992,0.2127,0.2204,0.2326,0.2405,0.2529,0.2617,0.2644,0.2646,0.2752,0.2585,0.2573,0.2668,0.2658,0.2661,0.2648,0.2762,0.2761,0.2761,0.276,0,0.1431,0.1503,0.156,0.1676,0.1715,0.1766,0.1907,0.1967,0.2118,0.2228,0.2285,0.2456,0.2564,0.2655,0.2765,0.2689,0.2711,0.2683,0.2796,0.2789,0.2506,0.2495,0.2551,0.2546,0.2542,0.2539,0.2536,0,0.1392,0.1421,0.1546,0.1578,0.1634,0.1727,0.1783,0.1941,0.2007,0.2229,0.2263,0.2445,0.2531,0.2561,0.2661,0.2698,0.2665,0.2652,0.2553,0.2502,0.2486,0.2481,0.2476,0.253,0.2529,0.2527,0.2526,0,0.132,0.1383,0.1432,0.1503,0.1565,0.1624,0.1723,0.1761,0.1937,0.2102,0.2197,0.2271,0.2388,0.2464,0.2521,0.2535,0.2643,0.2609,0.2616,0.2523,0.2476,0.2464,0.2463,0.2512,0.2514,0.2516,0.2516,0,0.1261,0.1277,0.1352,0.1402,0.1474,0.1489,0.1559,0.1639,0.1731,0.1973,0.2003,0.2191,0.236,0.2383,0.243,0.2438,0.2392,0.2297,0.2319,0.2336,0.2218,0.2125,0.2051,0,0,0,0,0,0.1188,0.1191,0.1237,0.1277,0.1351,0.1392,0.1499,0.1577,0.1752,0.1766,0.1882,0.1979,0.2074,0.218,0.2146,0.2326,0.2392,0.2274,0.2289,0.2434,0.2451,0.233,0,0,0,0,0,0,0.1127,0.1164,0.1193,0.1175,0.1183,0.124,0.1299,0.1416,0.1436,0.1631,0.17,0.1856,0.1984,0.2081,0.2112,0.214,0.2105,0.2398,0.2392,0.2425,0.244,0.2453,0.2335,0,0,0,0,0]},{"header":{"parameterUnit":"m.s-1","parameterCategory":2,"la1":30.2991,"la2":30.254,"lo1":-89.0895,"lo2":-89.0444,"dy":0.0017,"dx":0.0017,"nx":28,"ny":28,"refTime":"2024-10-22T03:00:00:Z","depth":"4","parameterNumber":3,"parameterNumberName":"V-component_of_CURRENTS"},"data":[0,0,0,0,0,0,0,0,0,0,0,0,0,0,0,0,0,0,0,0,0,0,0,0,0,0,0,0,0,0,0,0,0,0,0,0,0,0,0,0,0,0,0,0,0,0,0,0,0,0,0,0,0,0,0,0,0,0,0.0127,0.0127,0,0.0089,0.0088,0.0088,0.0058,0.0058,0.0058,0.0057,0.0016,0.0016,0.0015,0,0,0,0,0,0,0,0,0,0,0,0,0,0.015,0.015,0.0127,0.0127,0.0126,0.0089,0.0088,0.0088,0.0058,0.0058,0.0058,0.0057,0.0017,0.0016,0.0015,0,0,0,0,0,0,0,0,0,0,0,0,0,0.0129,0.015,0.0128,0.0107,0.0105,0.0089,0.0088,0.0088,0.0058,0.0058,0.0057,0.0057,0.0017,0.0016,0.0015,0.0015,0,0,0.0011,0.001,0,0,0,0,0,0,0,0,0.013,0.0128,0.0111,0.0109,0.0106,0.0078,0.0081,0.0063,0.0058,0.0076,0.0057,0.0057,0.0037,0.0034,0.0028,0.0013,0.0012,0.0011,0.001,0.0009,0.0009,0,0,0,0,0,0,0,0.0132,0.013,0.0112,0.011,0.0107,0.0091,0.0088,0.0078,0.0059,0.0074,0.0072,0.0068,0.0036,0.0029,0.0027,0.0011,0.0011,0.001,0.0009,0.0008,-0.0004,-0.0004,0,0,0,0,0,0,0.0138,0.0131,0.0113,0.0111,0.0117,0.0091,0.0088,0.0087,0.0059,0.0055,0.0068,0.0067,0.0031,0.0028,0.0025,0.0038,0.0009,0.0008,0.0008,-0.0005,-0.0004,-0.0004,0,0,0,0,0,0,0.0139,0.0137,0.0115,0.012,0.0116,0.0092,0.0091,0.0087,0.0081,0.0055,0.005,0.0067,0.0031,0.0027,0.0019,0.0036,0.0008,0.0007,-0.0005,-0.0004,-0.0004,0.0056,0,0,0,0,0,0,0.014,0.0138,0.0141,0.0121,0.0116,0.0113,0.0092,0.0086,0.0079,0.0077,0.0053,0.0048,0.003,0.0021,0.0018,0.0034,0.0006,-0.0006,-0.0005,-0.0004,0.0053,0.0059,0.0063,0,0,0,0,0,0.0141,0.0148,0.0141,0.0139,0.012,0.0113,0.011,0.009,0.008,0.0083,0.0064,0.0049,0.0024,0.0021,0.0017,0.0033,-0.0006,-0.0005,-0.0004,0.0051,0.0058,0.0063,0,0,0,0,0,0,0.0157,0.0145,0.0137,0.014,0.013,0.0108,0.0108,0.0095,0.0083,0.0079,0.0054,0.0049,0.0047,0.0031,0.0028,0.003,0.0007,0.0007,0.005,0.0056,0.006,0.0072,0.0005,0,0,0,0,0,0.0164,0.0166,0.0151,0.0153,0.0151,0.013,0.0125,0.0113,0.0098,0.0092,0.0076,0.0058,0.0048,0.0045,0.0029,0.0034,0.0003,0.004,0.0045,0.0049,0.0056,0.0025,0.0027,-0.0001,-0.0001,-0.0001,0,0,0.0169,0.0163,0.0164,0.0157,0.0147,0.0154,0.0126,0.0122,0.0131,0.009,0.0097,0.0073,0.0051,0.0053,0.0052,0.0043,0.0039,0.0051,0.0054,0.0059,0.0026,0.0028,0.0031,0.0,-0.0,-0.0,0,0,0.0186,0.0179,0.0189,0.0188,0.0179,0.017,0.0172,0.0156,0.0152,0.0152,0.0126,0.0113,0.0097,0.0087,0.008,0.0102,0.0062,0.0096,0.0136,0.0106,0.0108,0.0109,0.0066,0.0063,0.0103,0.0103,0.0104,0,0.0193,0.0208,0.0191,0.0204,0.0212,0.0182,0.0202,0.0195,0.0179,0.0182,0.0162,0.0137,0.0116,0.0123,0.0129,0.0114,0.0083,0.0118,0.0112,0.0113,0.0114,0.0069,0.0065,0.0106,0.0106,0.0106,0.0105,0,0.0221,0.0236,0.0243,0.0254,0.0259,0.027,0.0262,0.0265,0.0253,0.0242,0.0239,0.0204,0.0191,0.0182,0.0162,0.0163,0.0134,0.0119,0.01,0.012,0.0071,0.0066,0.0111,0.011,0.0109,0.0108,0,0,0.0231,0.0259,0.0262,0.0285,0.029,0.0299,0.0319,0.033,0.0345,0.0318,0.0333,0.0305,0.0276,0.0265,0.0236,0.021,0.0181,0.0171,0.0168,0.0132,0.0101,0.007,0.006,0.0163,0.0163,0.0163,0.0062,0,0.0261,0.0306,0.0311,0.0356,0.0381,0.0377,0.0401,0.0405,0.0397,0.04,0.0362,0.0357,0.0312,0.0305,0.0273,0.0204,0.0171,0.0208,0.0083,0.0079,0.0053,0.0055,0.0162,0.0058,0.0057,0.0056,0.0055,0,0.0289,0.0319,0.0373,0.0423,0.0433,0.0456,0.0493,0.0512,0.0506,0.0499,0.0479,0.0439,0.0403,0.0359,0.0251,0.0274,0.0196,0.0135,0.013,0.0078,0.0039,0.0034,0.0045,0.0046,0.0047,0.0047,0.0048,0,0.0312,0.0364,0.0414,0.043,0.0475,0.0505,0.0529,0.0542,0.0572,0.0561,0.0566,0.0506,0.0478,0.0378,0.0246,0.0248,0.0113,0.01,-0.0005,-0.0009,0.0023,0.0022,0.0023,0.0024,0.0024,0.0024,0.0024,0,0.0343,0.0383,0.0432,0.046,0.0525,0.0544,0.0609,0.0618,0.0644,0.0676,0.0619,0.0615,0.0481,0.0385,0.0263,0.0107,0.0121,0.0,-0.0033,0.0049,0.0052,0.0018,0.0019,0.002,0.0021,0.0022,0.0023,0,0.0359,0.039,0.0451,0.0513,0.0539,0.0585,0.067,0.0714,0.0724,0.0762,0.0763,0.0693,0.0561,0.0409,0.0235,0.0131,-0.0014,-0.0073,0.0015,-0.0012,-0.0121,-0.0116,-0.0193,-0.0195,-0.0197,-0.0198,-0.0199,0,0.037,0.0403,0.0488,0.0534,0.0567,0.0645,0.0706,0.0752,0.0799,0.0806,0.0822,0.0715,0.0642,0.038,0.021,-0.0034,-0.0067,-0.0145,-0.0123,-0.0117,-0.0142,-0.0134,-0.0127,-0.0202,-0.0202,-0.0202,-0.0203,0,0.0392,0.0422,0.0477,0.0574,0.0646,0.0733,0.0816,0.0854,0.09,0.0906,0.0871,0.0738,0.0583,0.0379,0.0181,0.0011,-0.0094,-0.0162,-0.016,-0.0139,-0.0128,-0.0149,-0.0141,-0.0208,-0.0207,-0.0207,-0.0207,0,0.041,0.0452,0.0531,0.0617,0.0706,0.0794,0.0838,0.0893,0.0939,0.0937,0.0917,0.0757,0.0666,0.0399,0.0221,0.0042,0.0001,-0.0047,-0.0051,-0.0047,0.0022,0.0059,0.0009,0,0,0,0,0,0.0433,0.0494,0.0572,0.0673,0.0758,0.0819,0.0903,0.094,0.0972,0.0957,0.0943,0.0799,0.0535,0.0425,0.0242,0.0175,-0.0042,-0.0047,-0.0102,-0.0238,-0.0232,-0.0179,0,0,0,0,0,0,0.0454,0.0534,0.0579,0.0703,0.0777,0.0886,0.0941,0.0964,0.0957,0.0953,0.0819,0.0754,0.0498,0.0644,0.0241,0.0186,0.0125,-0.0168,-0.0172,-0.0242,-0.0236,-0.0231,-0.0175,0,0,0,0,0]}]]